Terug naar catalogus

STARLINK-36956

ActiefCommunicatieVLEO
NORAD 68009·PAYLOAD·🇺🇸 United States

Gelanceerd Feb 27, 2026 vanaf Vandenberg Space Force Base

Loading…

Volgende Passages (komende 24 uur)

TLE

VersSource: CelesTrak SupGP

Epoch: Sep 15, 2026, 02:40 UTC

1 68009C 26039Z   26258.11159722 -.00024237  00000+0 -87755-3 0  2586
2 68009  43.0041  59.1331 0002112 281.4197  72.9257 15.27600520    18

Volg STARLINK-36956 in realtime met AllMySat

Download on the App Store